Flag for West Bank Weather past 2 weeks in Hebron, West Bank

Now
77 °F

Passing clouds.


Feels Like: 79 °F
Forecast: 57 / 72 °F
Wind: 10 mph from Northwest

Location: Ben Gurion International Airport

Current Time: Oct 2, 2014 at 8:03:23 PM

Latest Report: Oct 2, 2014 at 7:20 PM


Visibility: N/A

Pressure: 29.98 "Hg

Humidity: 65%

Dew point: 64 °F

Location of HebronLocation

Historic Weather in Hebron — Graph

°F

Hebron temperature yesterday

Maximum temperature yesterday: 84 °F (at 12:50 PM)
Minimum temperature yesterday: 68 °F (at 3:50 AM)
Average temperature yesterday: 77 °F

Past Weeks' High & Low Weather Summary

 TemperatureHumidityPressure
High95 °F (Sep 27, 12:50 PM)88% (Oct 2, 9:20 AM)30.01 "Hg (Oct 2, 9:20 AM)
Low68 °F (Sep 30, 3:20 AM)32% (Sep 27, 4:20 PM)29.71 "Hg (Sep 17, 6:20 PM)
Average79 °F62%29.92 "Hg
* Reported Sep 17 6:20 PM — Oct 2 6:50 PM, Hebron, Weather by CustomWeather, © 2014

Note: Actual official high and low records may vary slightly from our data, if they occured in-between our weather recording intervals... More about our weather records

Advertising

Hebron weather history for previous 24 hours

 ConditionsComfort  
Time TempWeatherWind HumidityBarometerVisibility
6:50 PM
Oct 2
79 °FPassing clouds.12 mph61%29.95 "HgN/A
6:20 PM79 °FScattered clouds.8 mph61%29.95 "HgN/A
5:50 PM79 °FScattered clouds.12 mph61%29.95 "HgN/A
5:20 PM81 °FScattered clouds.12 mph58%29.95 "HgN/A
4:50 PM81 °FScattered clouds.12 mph54%29.95 "HgN/A
4:20 PM81 °FScattered clouds.13 mph54%29.95 "HgN/A
3:50 PM82 °FScattered clouds.12 mph51%29.95 "HgN/A
3:20 PM82 °FScattered clouds.15 mph55%29.95 "HgN/A
2:50 PM82 °FScattered clouds.14 mph51%29.95 "HgN/A
2:20 PM81 °FScattered clouds.14 mph54%29.95 "HgN/A
1:50 PM82 °FScattered clouds.14 mph55%29.95 "HgN/A
1:20 PM82 °FScattered clouds.14 mph55%29.95 "HgN/A
12:50 PM81 °FScattered clouds.14 mph58%29.95 "HgN/A
12:20 PM81 °FScattered clouds.14 mph58%29.95 "HgN/A
11:50 AM81 °FScattered clouds.14 mph58%29.95 "HgN/A
11:20 AM81 °FScattered clouds.12 mph58%29.95 "HgN/A
10:50 AM81 °FScattered clouds.3 mph62%29.98 "HgN/A
10:20 AM75 °FScattered clouds.6 mph74%29.98 "HgN/A
9:50 AM72 °FPartly sunny.8 mph83%29.98 "HgN/A
9:20 AM70 °FMixture of precip. Partly sunny.10 mph88%29.98 "HgN/A
8:50 AM75 °FRain. Scattered clouds.10 mph74%29.95 "HgN/A
8:20 AM75 °FThundershowers. Passing clouds.6 mph69%29.95 "HgN/A
7:50 AM72 °FScattered clouds.7 mph78%29.95 "HgN/A
7:20 AM72 °FScattered clouds.3 mph78%29.95 "HgN/A
6:50 AM70 °FPassing clouds.7 mph78%29.95 "HgN/A
6:20 AM72 °FPassing clouds.5 mph73%29.92 "HgN/A
5:50 AM72 °FLight rain. Passing clouds.9 mph73%29.92 "HgN/A
5:20 AM73 °FPassing clouds.2 mph65%29.92 "HgN/A
4:50 AM73 °FPassing clouds.3 mph69%29.92 "HgN/A
4:20 AM73 °FPassing clouds.5 mph69%29.92 "HgN/A
3:50 AM73 °FPassing clouds.5 mph69%29.92 "HgN/A
3:20 AM75 °FPassing clouds.2 mph65%29.92 "HgN/A
2:50 AM77 °FPassing clouds.7 mph61%29.92 "HgN/A
2:20 AM75 °FPassing clouds.8 mph69%29.92 "HgN/A
1:50 AM77 °FPassing clouds.8 mph65%29.92 "HgN/A
1:20 AM77 °FPassing clouds.8 mph65%29.92 "HgN/A
12:50 AM77 °FPassing clouds.9 mph65%29.92 "HgN/A
12:20 AM77 °FPassing clouds.9 mph61%29.92 "HgN/A
11:50 PM
Oct 1
77 °FPassing clouds.9 mph61%29.92 "HgN/A
11:20 PM77 °FPassing clouds.9 mph61%29.92 "HgN/A
10:50 PM77 °FPassing clouds.6 mph61%29.92 "HgN/A
10:20 PM77 °FPassing clouds.6 mph61%29.92 "HgN/A
9:50 PM77 °FPassing clouds.8 mph61%29.95 "HgN/A
9:20 PM79 °FPassing clouds.10 mph58%29.95 "HgN/A
8:50 PM79 °FPassing clouds.8 mph61%29.95 "HgN/A
8:20 PM79 °FPassing clouds.9 mph61%29.92 "HgN/A
Weather by CustomWeather, © 2014

See weather overviewHow to use our weather pages